Other Public Products
Issued by NWS Grand Forks, ND

Home | Current Version | Previous Version | Text Only | Print | Product List | Glossary Off
Versions: 1 2 3 4 5 6 7 8 9 10 11 12 13 14 15 16 17 18 19 20 21 22 23 24 25 26 27 28 29 30 31 32 33 34 35 36 37 38 39 40 41 42 43 44 45 46 47 48 49 50

000
FPUS83 KFGF 021831
OPUFGF
PRAIRIE TO PINES WEATHER ROUNDUP
NATIONAL WEATHER SERVICE EASTERN NORTH DAKOTA/GRAND FORKS ND
100 PM CDT SUN AUG 02 2015

 **SATELLITE DATA USED TO AUGMENT SKY COVER AT AUTOMATED STATIONS**
 *****  WEATHER ACROSS EASTERN NORTH DAKOTA  *****

CITY           SKY/WX    TMP DP  RH WIND       PRES   REMARKS
GRAND FORKS    PTSUNNY   75  54  47 N14       29.81S
6HR MIN TEMP:  62; 6HR MAX TEMP:  75;

GRAND FORKS AF MOSUNNY   74  52  45 NW17      29.82F
GRAND CITY NWS NOT AVBL
BUXTON         NOT AVBL
DEVILS LAKE    SUNNY     73  46  38 NW20      29.88S
6HR MIN TEMP:  61; 6HR MAX TEMP:  73;

FARGO          PTSUNNY   75  56  51 N20       29.82R
6HR MIN TEMP:  67; 6HR MAX TEMP:  77; 6HR PCP: TRACE;

WAHPETON ARPT  PTCLDY    79  50  36 N14G24    29.82R
$$

 *****  WEATHER ACROSS CENTRAL AND WESTERN NORTH DAKOTA  *****

CITY           SKY/WX    TMP DP  RH WIND       PRES   REMARKS
JAMESTOWN      PTSUNNY   73  57  57 NW17      29.89R
6HR MIN TEMP:  62; 6HR MAX TEMP:  75;

BISMARCK       MOSUNNY   78  54  43 NW17      29.95S
6HR MIN TEMP:  62; 6HR MAX TEMP:  78;

MINOT          SUNNY     74  50  42 N9G17     29.95R
6HR MIN TEMP:  59; 6HR MAX TEMP:  74;

MINOT AFB      MOSUNNY   77  49  37 N8G18     29.94R
6HR MIN TEMP:  58; 6HR MAX TEMP:  77;

GARRISON         N/A     73  56  54 NW13      29.96S
6HR MIN TEMP:  59; 6HR MAX TEMP:  74;

WILLISTON      SUNNY     77  50  38 N12G17    30.00F
6HR MIN TEMP:  54; 6HR MAX TEMP:  77;

DICKINSON      SUNNY     76  51  41 N8G20     29.99F
6HR MIN TEMP:  50; 6HR MAX TEMP:  77;

HETTINGER      SUNNY     79  49  34 N13G18    30.00F
6HR MIN TEMP:  50; 6HR MAX TEMP:  80;

$$

 *****  OTHER OBSERVATIONS NORTHEAST NORTH DAKOTA  *****

CITY           SKY/WX    TMP DP  RH WIND       PRES   REMARKS
WALHALLA       FAIR      72  46  40 MISG      29.84S
LANGDON        FAIR      73  43  33 N17G24    29.87F
CAVALIER       FAIR      73  46  38 NW16G22   29.83S
GRAFTON        FAIR      73  48  40 N14G24    29.83S
CANDO          FAIR      73  46  38 N17       29.90S
FORT TOTTEN      N/A     73  52  47 N7        29.95
ROLLA            N/A     68  50  52 NW20G25   29.91F
RUGBY          NOT AVBL
 ***** THE ABOVE OBSERVATIONS ARE NON NWS ARE NOT QUALITY
        CONTROLLED AND MAY MIS-REPORT RAIN FOR SNOW...
$$

 *****  OTHER OBSERVATIONS SOUTHEAST NORTH DAKOTA *****

CITY           SKY/WX    TMP DP  RH WIND       PRES   REMARKS
COOPERSTOWN    NOT AVBL
VALLEY CITY    FAIR      75  57  53 N14G26    29.87S
OAKES            N/A     77  59  53 N13G21    29.88R
GWINNER        FAIR      77  55  47 N15G29    29.86S
SHEYENNE NWR     N/A     76  56  49 N12       29.95S
BUFFALO        NOT AVBL
WYNDMERE         N/A     77  57  50 N14         N/A
 ***** THE ABOVE OBSERVATIONS ARE NON NWS ARE NOT QUALITY
       CONTROLLED AND MAY MIS-REPORT RAIN FOR SNOW...
$$

  *****  WEATHER ACROSS NORTHERN MINNESOTA  *****

CITY           SKY/WX    TMP DP  RH WIND       PRES   REMARKS
FLAG ISLAND    MOSUNNY   70  45  40 NW28      29.71S
WARROAD        SUNNY     72  48  43 W14G21    29.75S
ROSEAU         MOSUNNY   72  52  49 NW17G23   29.76S
HALLOCK        PTSUNNY   72  45  37 NW18G28   29.80S
THF RVR FALLS  PTSUNNY   72  48  43 NW18G24   29.81R
6HR MIN TEMP:  63; 6HR MAX TEMP:  72;

HALSTAD        NOT AVBL
FOSSTON        MOSUNNY   73  48  40 NW9G22    29.81R
BAUDETTE       MOSUNNY   70  45  40 NW20G26   29.73S
6HR MIN TEMP:  59; 6HR MAX TEMP:  71;

WASKISH        MOSUNNY   72  52  49 NW13G23   29.75R
CROOKSTON      MOSUNNY   73  54  49 N15G28    29.81F
$$
  *****  WEATHER ACROSS CENTRAL AND WEST MINNESOTA  *****

CITY           SKY/WX    TMP DP  RH WIND       PRES   REMARKS
BEMIDJI        PTSUNNY   73  52  47 NW15G22   29.77R
PARK RAPIDS    MOSUNNY   77  55  46 NW20G26   29.76R
6HR MIN TEMP:  65; 6HR MAX TEMP:  78; 6HR PCP: TRACE;

WADENA         SUNNY     75  57  53 NW18G28   29.77R
DETROIT LAKES  MOSUNNY   73  52  46 NW21      29.82S
MOORHEAD       MOSUNNY   73  59  60 N16G23    29.83R
FERGUS FALLS   MOSUNNY   75  57  53 N16G30    29.80R
ELBOW LAKE     FAIR      74  60  61 NW15G25   29.80S
MORRIS MN      MOSUNNY   77  63  61 NW21G26   29.79S
STAPLES        MOSUNNY   77  55  47 NW20G25   29.75R
WHEATON        MOSUNNY   75  59  57 NW17G24   29.83R
$$
  *****  WEATHER ELSEWHERE ACROSS MINNESOTA  *****

CITY           SKY/WX    TMP DP  RH WIND       PRES   REMARKS
DULUTH         MOSUNNY   73  60  63 NW16G23   29.67R
6HR MIN TEMP:  63; 6HR MAX TEMP:  74; 6HR PCP:  0.02;

INTRNTL FALLS  MOSUNNY   71  52  50 NW14G24   29.69R
6HR MIN TEMP:  59; 6HR MAX TEMP:  72;

ELY            PTSUNNY   70  52  52 NW7G21    29.66S
CLOQUET        PTSUNNY   73  55  53 NW12G24   29.69R
BRAINERD       PTSUNNY   75  57  53 N12       29.73R
6HR MIN TEMP:  66; 6HR MAX TEMP:  78;

HIBBING        PTSUNNY   73  55  53 NW16      29.68S
6HR MIN TEMP:  60; 6HR MAX TEMP:  74; 6HR PCP:  0.03;

ALEXANDRIA     MOSUNNY   77  59  53 N16       29.80R
6HR MIN TEMP:  65; 6HR MAX TEMP:  77;

SAINT CLOUD    SUNNY     80  64  58 N10       29.71R
6HR MIN TEMP:  65; 6HR MAX TEMP:  80; 6HR PCP: TRACE;

MINNEAPOLIS    MOSUNNY   83  66  56 NW21      29.66R
6HR MIN TEMP:  71; 6HR MAX TEMP:  84;

$$

  *****  WEATHER ACROSS SOUTH DAKOTA  *****

CITY           SKY/WX    TMP DP  RH WIND       PRES   REMARKS
SIOUX FALLS    PTSUNNY   84  66  54 N12G21    29.82R
6HR MIN TEMP:  64; 6HR MAX TEMP:  84;

BROOKINGS      SUNNY     81  63  54 N16G23    29.85S
WATERTOWN      SUNNY     79  60  52 NW18      29.86R
6HR MIN TEMP:  67; 6HR MAX TEMP:  79;

HURON          SUNNY     80  62  54 NE16      29.86R
6HR MIN TEMP:  64; 6HR MAX TEMP:  80;

SISSETON         N/A     77  60  55 N16       29.82R
ABERDEEN       SUNNY     80  58  46 N15       29.88R
6HR MIN TEMP:  67; 6HR MAX TEMP:  81;

MITCHELL       SUNNY     82  67  60 N14       29.86R
PIERRE         SUNNY     85  53  33 N16G23    29.89S
6HR MIN TEMP:  67; 6HR MAX TEMP:  86;

MOBRIDGE       SUNNY     81  56  42 N16G23    29.90F
RAPID CITY     MOSUNNY   80  55  42 VRB7      30.02R
6HR MIN TEMP:  64; 6HR MAX TEMP:  80;

$$

  *****  SOME WEATHER IN NEARBY STATES *****

CITY           SKY/WX    TMP DP  RH WIND       PRES   REMARKS
GLASGOW MT     SUNNY     79  48  33 N9        30.04S
6HR MIN TEMP:  57; 6HR MAX TEMP:  79;

GREAT FALLS MT MOSUNNY   73  52  47 NW6       30.09F
6HR MIN TEMP:  52; 6HR MAX TEMP:  74;

CHEYENNE WY    SUNNY     87  46  24 NE9       30.15S
6HR MIN TEMP:  56; 6HR MAX TEMP:  88;

SCOTTSBLUFF NE SUNNY     87  62  43 NW5       30.00F
6HR MIN TEMP:  59; 6HR MAX TEMP:  87;

OMAHA NE       SUNNY     93  71  48 W14       29.81F HX 100
6HR MIN TEMP:  74; 6HR MAX TEMP:  93;

DES MOINES IA  MOSUNNY   91  72  53 W21G29    29.79F HX  98
6HR MIN TEMP:  73; 6HR MAX TEMP:  91; 6HR PCP: TRACE;

DAVENPORT IA   MOSUNNY   85  71  63 SW12G18   29.81F HX  90
6HR MIN TEMP:  70; 6HR MAX TEMP:  85;

CHICAGO IL     MOSUNNY   89  63  41 SW14G31   29.78F HX  90
6HR MIN TEMP:  72; 6HR MAX TEMP:  89;

EAU CLAIRE WI  PTSUNNY   83  68  60 W17       29.61R
6HR MIN TEMP:  67; 6HR MAX TEMP:  85;

LA CROSSE WI   MOSUNNY   90  69  50 SW18G26   29.61F HX  94
6HR MIN TEMP:  74; 6HR MAX TEMP:  90;

$$

  *****  SOME NATIONAL WEATHER *****

CITY           SKY/WX    TMP DP  RH WIND       PRES   REMARKS
LA GUARDIA NY  PTSUNNY   87  55  33 SE13G20   29.89F


USA.gov is the U.S. government's official web portal to all federal, state and local government web resources and services.